Погода в Балашове

Погода в Балашове : погода сейчас, прогноз погоды и архив. Всё, что Вы хотите узнать о погоде в Балашове!

Хотите узнать прогноз погоды в Балашове? Тогда Вам сюда: Погода в Балашове

Поиск расширенной информации на нашем сайте:

Другие новости

Новости СМИ2

Главная страница сайта

Новости сайта

02.10.2013

Напоминаем, что на нашем новом сайте вы можете получить высокодетализированные прогнозы погоды по пунктам России, СНГ и мира (включающие важные для авиации метеовеличины, такие как направление и скорость ветра, видимость, явления погоды, количество и форма облачности, нижняя и верхняя граница облачности), а также ознакомиться с разнообразными материалами по авиационной метеорологии и подборкой полезных ссылок на эту тему.

Сайт Метеоцентр.Азия посвящён разработке технологий оптимизации авиаметеорологического обслуживания, включая проектирование и перспективное создание нескольких автоматизированных авиаметеорологических систем:
- система выпуска высокодетальных прогностических карт явлений погоды для нижнего воздушного пространства по России и ближнему зарубежью;
- система верификации прогнозов TAF (выпускаемых синоптиками официальных АМСГ РФ и ближнего зарубежья) и AUTOTAF (выпускаемых сайтом Метеоцентр.Азия) - выявление ошибок, онлайн-сопоставление с фактической погодой METAR, автоматическое внесение коррективов в прогнозы при резком отклонении фактической погоды от прогноза, подсчёт оправдываемости прогнозов по элементам и в целом;
- система обработки, анализа и отображения авиаметеорологической информации для применения провайдерами метеорологической информации.

Рекомендуем: Остекление балконов в казани сравнить пульс цен балконы остекление цены.

Погода в Балашове - сегодня

Время (UTC), дата Ветер
(°,м/с) 
Видим.   Явления Облачность Т
(°С)
Тd
(°С)
f(%) Тe
(°С)
Pmin
(гПа)
dP
(гПа)
Po
(мм)
O2
(г/м3)
Тmin Tmax R s Состояние
почвы
09 22.03.17 050 (СВ) 20000 м    5/0 средняя, верхняя 
[Ac trans|Ci fib]
+3 -4.8 56 +1  1018.9  750  299           
12 22.03.17 050 (СВ) 20000 м    8/0 верхняя 
[Ci fib]
+6.3 -3.2 51 +5  1018.6  0.1  750  296           
15 22.03.17 050 (СВ) 20000 м    3/0 верхняя 
[Ci fib]
+4.1 -2.6 62 +3  1019.9  1.1  750  298    +6.6       
18 22.03.17 090 (В) 20000 м    ясно 
+1.1 -2.8 75 +2  1021  0.8  751  302           
21 22.03.17 130 (ЮВ) 20000 м    10/0 средняя 
[Ac As]
+1.5 -1.8 79 +2  1021.4  0.4  751  301           
00 23.03.17 140 (ЮВ) 20000 м    10/0 средняя 
[Ac As]
+1 -2 80 +2  1021.6  0.2  752  302           
03 23.03.17 тихо ()   20000 м    10/10 400 м 
[Sc]
-0.1 -2.9 81 -0  1022.7  0.9  752  304  -0.4        мокрая 
06 23.03.17 180 (Ю) 20000 м    9/5 300 м средняя 
[Sc|Ac trans]
+1.3 -2 79 +1  1023.1  0.5  753  302           
09 23.03.17 170 (Ю) 20000 м    9/6 540 м средняя 
[Sc|Ac trans]
+3.1 -1.1 74 +2  1022.6  -0.4  752  300           
12 23.03.17 180 (Ю) 20000 м    10/0 средняя 
[As op]
+6.9 +0.7 65 +6  1021.7  -0.6  752  295           
15 23.03.17 170 (Ю) 20000 м    10/0 средняя 
[Ac As]
+5.8 +1.8 75 +6  1021.6  -0.1  752  296    +7.2       
18 23.03.17 170 (Ю) 20000 м    10/10 720 м 
[Sc]
+5 +3.3 89 +5  1022.6  0.8  752  297           
21 23.03.17 230 (ЮЗ) 20000 м    10/10 330 м 
[St]
+5.2 +3.4 88 +6  1023.3  0.7  753  297           
00 24.03.17 040 (СВ) 10 км    10/10 210 м 
[St]
+3.9 +2.6 91 +3  1024.5  1.1  754  299           
03 24.03.17 070 (В) 10 км    10/0 верхняя 
[Ci fib]
+1 +0.3 95 1025.5  0.8  754  303  +1        мокрая 
06 24.03.17 130 (ЮВ) 10 км    10/10 210 м 
[St]
+2.1 +0.6 90 +1  1025.2  -0.2  754  302  +0.5         
09 24.03.17 120 (ЮВ) 10 км    10/10 240 м 
[St]
+4.6 +2.5 86 +4  1023.9  -1.1  753  298           
12 24.03.17 150 (ЮВ) 20000 м    10/10 300 м 
[St]
+7 +4.2 82 +6  1020.3  -3.4  751  294           
15 24.03.17 160 (Ю) 4000 м  дымка  10/10 180 м 
[St]
+6.4 +5.4 93 +5  1016.8  -3.5  748  294    +7       
18 24.03.17 210 (ЮЗ) 5-10{10}  10 км  слаб. ливневой дождь  10/10 240 м кучево-дожд. 
[Cb cap]
+7.1 +6.3 95 +5  1014.5  -3.5  747  292           
21 24.03.17 200 (Ю) 4{10}  20000 м  в посл. час ливневой дождь  10/10 240 м кучево-дожд. 
[Cb cap]
+6.8 +5.9 94 +5  1010.5  -3.9  744  291           
00 25.03.17 210 (ЮЗ) 5{10}  20000 м  {ливн. осадки}  10/10 700 м 
[Sc diur, vesp]
+7.4 +5.4 87 +6  1007.7  -2.7  742  290           
03 25.03.17 300 (СЗ) 5{12}  20000 м  слаб. ливневой дождь  10/10 300 м кучево-дожд. 
[Cb cap]
+4 +2.7 91 +2  1007.5  -0.4  741  294  +4      мокрая 
06 25.03.17 300 (СЗ) 6-11{11}  10 км  {ливн. осадки}  10/10 570 м 
[Sc diur, vesp]
+3 +0.7 85 1008.8  1.2  742  296  +3         
09 25.03.17 330 (СЗ) 7-11{13}  20000 м    9/9 900 м 
[Sc diur, vesp]
+3.3 -3.8 60 1010.2  1.4  743  296           
Время (UTC), дата Ветер
(°,м/с) 
Видим.   Явления Облачность Т
(°С)
Тd
(°С)
f(%) Тe
(°С)
Pmin
(гПа)
dP
(гПа)
Po
(мм)
O2
(г/м3)
Тmin Tmax R s Состояние
почвы

Для получения пояснительной информации подведите курсор к названию столбца.

ПОГОДА в Балашове - архив

Всё, что Вы хотите узнать о погоде в Балашове - удобно и подробно!

Выберите нужную дату (начиная с 1 января 2015* года) и нажмите кнопку "Найти".
Будут отображены архивные сводки погоды по пункту Балашов, начиная с указанной даты.


Отображать данные в формате CSV (для использования в таблицах Excel)


Внимание! Наш архив погоды предназначен исключительно для личного некоммерческого использования в познавательных целях. Если Вам необходимы официальные справки о состоянии погоды (для производственных, юридических, коммерческих и т.п. целей), обращайтесь в органы Росгидромета.

*Примечание: данная дата относится к архиву по метеостанциям СССР (Россия, СНГ, Балтия).
Архив по метеостанциям Зарубежной Европы и Азии (кроме Китая) хранится 10 дней, по другим регионам земного шара (Китай, Африка, Америка, Австралия, Океания) - 1 день.

Балашов - район местоположения метеостанции


Название, широта, долгота, высота метеостанции:
Балашов 51.6°ш. 43.2°д. 159 м над ур. моря [Российская Федерация]

Дополнительная информация

В oтличие oт бoльшинства пoгoдных сайтoв мы публикуем пoдрoбную метеoинфoрмацию в детальнoм прoфессиoнальнoм фoрмате.

Характеристики температуры и влажнoсти вoздуха измеряются на высoте 2 м в тени вдали oт зданий и деревьев.
Скoрoсть ветра измеряется на высoте 10 м (на урoвне рoста челoвека скoрoсть ветра ниже в 1.5-2 раза). Если метеoстанция нахoдится в гoрoде или в лесу, тo скoрoсть ветра занижена на 2-4 м/с пo сравнению с oткрытым местoм. Скoрoсть ветра над акватoриями крупных рек и oзёр, а также на вершинах хoлмoв на 2-5 м/с выше, чем в oбычных услoвиях.
Атмoсфернoе давление в разных тoчках местнoсти мoжет значительнo oтличаться oт давления на метеoстанции, в зависимoсти oт услoвий рельефа (при пoдъёме на 10 м давление пoнижается примернo на 1 мм рт.ст.).